Regional Weather Roundup
Issued by NWS

Home | Current Version | Previous Version | Text Only | Print | Product List | Glossary Off
Versions: 1 2 3 4 5 6 7 8 9 10 11 12 13 14 15 16 17 18 19 20 21 22 23 24 25 26 27 28 29 30 31 32 33 34 35 36 37 38 39 40 41 42 43 44 45 46 47 48 49 50

000
ASUS43 KLOT 310708
RWRIL

ILLINOIS REGIONAL WEATHER ROUNDUP
NATIONAL WEATHER SERVICE CHICAGO/ROMEOVILLE IL
200 AM CDT MON AUG 31 2015

NOTE: "FAIR" INDICATES FEW OR NO CLOUDS BELOW 12,000 FEET WITH NO
SIGNIFICANT WEATHER AND/OR OBSTRUCTIONS TO VISIBILITY.

* THESE STATIONS ARE NOT UNDER NWS QUALITY CONTROL. THEY ALSO MAY NOT
  REPORT WEATHER SUCH AS PRECIPITATION OR FOG.

ILZ001-002-007-009-015-016-024-310800-
NORTHWEST ILLINOIS

CITY           SKY/WX    TMP DP  RH WIND       PRES   REMARKS
MOLINE         CLEAR     61  60  97 CALM      30.01F FOG
STERLING*        N/A    N/A N/A N/A MISG        N/A
SAVANNA*       FOG       61  60  96 CALM      30.02F VSB 3/4
$$

ILZ003-004-008-010-011-017-018-310800-
NORTH CENTRAL ILLINOIS

CITY           SKY/WX    TMP DP  RH WIND       PRES   REMARKS
ROCKFORD       CLEAR     62  59  90 CALM      30.04F
FREEPORT*      CLEAR     57  57  98 CALM      30.04F FOG
ROCHELLE*      CLEAR     58  57  99 CALM      30.04S FOG
DE KALB*       PTCLDY    60  59  98 CALM      30.05S FOG
PERU*          CLEAR     64  62  93 CALM      30.04S FOG
$$

ILZ005-006-012>014-019>023-310800-
NORTHEAST ILLINOIS

CITY           SKY/WX    TMP DP  RH WIND       PRES   REMARKS
CHICAGO-OHARE  MOCLDY    64  63  96 CALM      30.03S FOG
CHICAGO-MIDWAY CLEAR     68  64  87 CALM      30.03F FOG
AURORA         FOG       58  57  97 CALM      30.04F VSB 1/4
LANSING*       FOG       60  60 100 CALM      30.04S VSB 1/4
JOLIET*        FOG       62  62  99 CALM      30.04S VSB 3/4
WAUKEGAN       FOG       62  62 100 S5        30.02F VSB 1/4
DUPAGE AIRPORT CLOUDY    60  58  92 CALM      30.04R FOG
KANKAKEE*      CLEAR     64  63  98 CALM      30.04F
WHEELING       CLOUDY    60  58  92 CALM      30.05S FOG
MORRIS*        CLEAR     61  60  97 CALM      30.03S FOG
ROMEOVILLE*    FOG       62  62 100 SE3       30.04S VSB 1/4
NORTHERLY ISL    N/A     65  63  93 CALM        N/A
$$

LMZ740>746-310800-
SOUTHERN LAKE MICHIGAN

STATION/POSITION SKY/WX   TEMP    WIND        PRES    VSBY  WAVE
                          AIR SEA DIR/SP/G                  HT/PER
                          (F)     (DEG/KT/KT) (MB)    (MI)  (FT/S)
SOUTHERN BUOY              68 68  180/  8/  8 1016.5F         0
WILMETTE HARBOR            61 60  360/  2/  4   N/A           1
HARRISON CRIB              68     130/  6/  8   N/A
BURNHAM HARBOR             65      CALM  /  1   N/A
BURNS HARBOR               68      30/  2/  3 1017.6S
MICHIGAN CITY              65      50/  3/  4   N/A
MICHIGAN CITY 6N           68 71  130/  4/  6   N/A           1
ST. JOSEPH                 68 71  170/  6/  6   N/A           0
$$

ILZ025>027-034>036-040-047-049-050-058-095>099-310800-
WEST-CENTRAL ILLINOIS

CITY           SKY/WX    TMP DP  RH WIND       PRES   REMARKS
QUINCY         CLEAR     71  68  90 SE5       30.00S
GALESBURG*     CLEAR     66  65  96 E3        30.03S
MACOMB*        CLEAR     63  62  99 CALM      30.04S FOG
JACKSONVILLE*  CLEAR     68  66  93 CALM      30.01S FOG
PITTSFIELD*    CLEAR     69  67  94 CALM      30.02S FOG
$$

ILZ028>032-037-038-041>044-048-051>054-059>061-310800-
CENTRAL ILLINOIS

CITY           SKY/WX    TMP DP  RH WIND       PRES   REMARKS
PONTIAC        CLEAR     63  63  99 CALM      30.04F FOG
BLOOMINGTON    CLEAR     68  68 100 CALM      30.04F FOG
DECATUR        CLEAR     72  67  84 S6        30.03S
PEORIA         CLEAR     69  65  86 E3        30.02F
LACON*         CLEAR     62  61  96 CALM      30.03R FOG
LINCOLN*       CLEAR     69  66  92 CALM      30.02S FOG
SPRINGFIELD    CLEAR     71  68  90 S3        30.01F
TAYLORVILLE    CLEAR     68  68 100 S3        30.02F
$$

ILZ033-039-045-046-055>057-062-063-310800-
EAST-CENTRAL ILLINOIS

CITY           SKY/WX    TMP DP  RH WIND       PRES   REMARKS
CHAMPAIGN      PTCLDY    68  66  93 CALM      30.04F FOG
RANTOUL*       MOCLDY    70  69  96 CALM      30.04S FOG
MATTOON        CLEAR     72  67  84 S6        30.03F HAZE
PARIS*         CLEAR     68  67  96 SW5       30.05S
$$

ILZ079-100>102-310800-
SOUTHWEST ILLINOIS

CITY           SKY/WX    TMP DP  RH WIND       PRES   REMARKS
ALTON          PTCLDY    72  70  93 SE3       30.01F
BELLEVILLE     CLEAR     72  72 100 SE2       30.00F
CAHOKIA*       CLEAR     74  70  87 S3        30.01S
SPARTA*        CLEAR     72  69  90 S5        30.03F
$$

ILZ064>066-069>071-074>076-080>082-084>086-088>090-092>094-310800-
SOUTH-CENTRAL ILLINOIS

CITY           SKY/WX    TMP DP  RH WIND       PRES   REMARKS
CARBONDALE     CLEAR     69  66  90 SE3       30.03F
CAIRO*         PTCLDY    66  66 100 CALM      30.04S
EFFINGHAM*     PTCLDY    69  66  91 CALM      30.05S
MARION         MOCLDY    72  68  88 CALM      30.04F
MT. VERNON     CLEAR     70  64  83 CALM      30.05S
SALEM*         CLEAR     73  69  85 S3        30.03S
METROPOLIS*    CLEAR     68  68 100 CALM      30.06S FOG
$$

ILZ067-068-072-073-078-083-087-091-310800-
SOUTHEAST ILLINOIS

CITY           SKY/WX    TMP DP  RH WIND       PRES   REMARKS
LAWRENCEVILLE  CLEAR     69  67  93 S5        30.06R
FLORA*         CLEAR     67  66  96 S3        30.04F
FAIRFIELD*     CLEAR     69  67  96 SE3       30.04S
HARRISBURG*    MOCLDY    67  66  99 CALM      30.05S
ROBINSON*      CLEAR     65  64  96 CALM      30.06S FOG
CARMI*         MOCLDY    66  66  98 CALM      30.05S
$$

ABBREVIATIONS USED IN REMARKS
   TC - TEMPERATURE IN CELSIUS
  WCI - WIND CHILL INDEX
   HX - HEAT INDEX
  VSB - VISIBILITY
$$




USA.gov is the U.S. government's official web portal to all federal, state and local government web resources and services.